Theta_e
315 316 317 315 316 314 314 310 305 305 299 297 298 301 300 297 294 294 295 294 296 296 295 294 295 296 296 293 291 292 291 291 290 290 284 282 285 287 287 289 288 285 281 290
316 315 316 315 315 315 314 308 303 300 295 300 298 297 296 295 294 294 293 294 294 294 295 296 293 293 292 292 292 292 290 289 288 290 286 283 283 281 283 282 279 288 285 288
314 316 315 317 316 315 314 308 301 294 293 296 299 299 297 295 294 294 294 293 293 293 293 293 295 292 291 292 292 293 292 288 289 295 291 287 286 285 285 286 287 286 289 290
314 313 314 315 315 314 313 307 303 301 294 294 297 299 301 297 295 292 293 292 293 293 294 293 295 294 291 291 292 293 291 289 287 289 289 288 289 285 285 285 288 288 288 285
316 313 313 314 315 314 309 307 302 299 297 295 295 298 299 300 295 292 292 294 292 291 293 295 295 292 293 292 290 290 289 287 286 288 289 290 289 289 284 285 286 287 287 284
314 315 314 315 315 314 306 304 303 303 297 294 296 296 297 297 294 293 293 293 294 294 293 291 291 290 291 290 289 289 287 284 285 288 287 286 284 282 284 276 268 273 278 276
314 315 315 314 315 314 312 306 302 299 296 295 296 296 295 295 295 292 291 291 292 289 290 290 289 289 289 289 289 289 284 286 288 287 284 284 277 275 279 275 268 266 269 269
313 314 315 314 314 308 310 305 302 298 288 287 290 291 292 292 291 289 287 287 288 288 288 288 288 287 287 286 283 284 286 287 287 287 284 280 274 273 273 275 274 265 268 269
313 314 314 313 306 307 304 299 298 296 288 278 278 286 289 290 289 288 285 286 286 286 288 288 287 287 286 283 281 281 282 280 284 280 281 280 274 273 275 273 273 273 273 273
312 312 313 311 304 299 298 297 297 297 279 277 279 280 283 286 287 287 284 284 285 285 286 287 287 285 283 284 281 281 280 277 279 280 281 277 272 274 275 273 275 272 272 272
307 306 303 297 295 295 296 293 294 296 277 275 277 278 279 282 282 285 282 284 284 285 284 285 285 282 280 279 275 277 279 277 276 274 272 276 273 274 273 272 272 272 271 271
295 296 296 296 295 295 295 292 291 291 282 275 276 276 277 279 279 282 282 282 282 280 281 280 282 282 279 274 277 272 276 273 274 275 274 272 273 274 274 273 272 271 271 271
294 293 293 293 292 292 293 290 288 289 276 276 276 275 276 278 279 281 281 280 280 279 280 280 277 275 273 276 274 269 267 269 268 271 270 272 273 272 272 271 271 271 270 270
289 289 289 289 289 289 288 286 283 284 279 275 274 275 275 275 278 279 280 279 279 279 279 278 272 274 274 271 270 270 270 269 263 265 269 271 273 273 272 271 271 270 269 269
288 287 287 287 286 285 285 283 282 283 281 276 274 275 275 275 276 277 278 278 278 277 276 272 269 272 271 270 268 263 270 265 265 268 272 270 271 271 270 269 269 269 268 268
286 285 284 283 283 284 284 281 280 280 280 277 274 273 274 274 274 275 275 276 276 274 273 272 271 271 271 263 263 272 274 273 273 271 271 270 269 269 269 269 269 269 268 268
285 285 284 284 284 284 281 278 279 279 279 277 275 274 273 274 274 273 274 273 273 273 272 272 272 272 271 258 262 274 274 273 273 272 270 269 270 269 269 269 269 268 268 268
284 284 283 282 281 280 278 278 279 278 278 276 272 273 273 272 273 273 273 274 273 272 272 272 271 271 270 263 271 274 274 273 272 272 271 270 270 270 270 269 268 268 268 268
281 280 280 280 278 277 276 276 277 277 276 271 270 269 269 271 271 271 273 273 269 272 271 270 270 265 265 270 275 275 274 273 272 272 271 271 270 270 269 269 268 267 268 268
279 280 279 277 276 276 276 276 277 275 272 271 269 269 266 270 270 270 270 271 265 263 266 269 265 264 272 274 274 274 274 274 273 272 270 270 270 269 269 269 269 268 267 268
279 278 276 275 276 276 275 272 271 270 268 269 269 269 268 269 265 264 269 263 264 263 267 266 263 264 272 276 275 275 275 274 273 272 272 271 271 270 270 269 269 269 268 268
278 278 276 276 275 275 270 265 270 267 266 269 269 269 269 269 269 269 268 262 263 266 268 263 263 266 276 275 275 275 274 273 273 272 272 271 271 271 270 270 270 269 269 269
278 278 275 274 270 267 264 263 263 263 268 268 268 268 269 269 269 269 266 262 264 267 261 265 267 275 276 276 276 275 274 273 273 272 272 272 272 271 271 270 270 270 269 269
277 274 266 263 263 265 263 263 266 268 268 268 268 268 269 269 268 267 263 265 264 263 264 268 268 276 277 276 275 274 274 273 273 273 272 272 272 272 271 271 271 270 270 270
273 272 264 264 269 269 269 269 269 269 268 268 268 269 268 268 263 267 266 268 268 270 273 273 277 277 276 275 275 274 274 273 273 273 273 272 272 272 272 272 271 271 271 270
273 271 269 271 271 270 269 269 269 268 269 268 268 268 262 263 263 268 268 269 273 275 277 278 277 276 275 275 275 274 274 273 273 273 273 273 272 272 272 272 272 272 272 271
273 271 271 271 271 270 270 269 269 269 269 269 269 266 266 268 268 271 273 274 277 278 277 276 276 276 275 275 274 274 274 274 274 273 273 273 272 273 273 272 273 272 272 272
Wind_Speed
24 25 27 25 31 24 22 12 2 12 14 4 4 3 5 4 6 8 5 3 6 6 7 6 5 7 2 9 12 6 2 3 4 8 3 1 2 5 5 4 5 3 3 10
25 24 23 24 28 25 27 7 5 15 23 5 6 5 5 6 6 6 6 7 6 1 5 3 6 4 2 10 6 6 5 1 2 4 4 4 2 4 3 3 3 12 4 7
28 27 25 32 34 32 27 7 3 4 13 6 4 5 4 6 9 5 6 4 5 4 5 3 3 4 3 6 5 4 7 3 6 8 3 4 3 5 5 6 6 7 20 23
29 29 28 28 34 31 29 11 5 8 5 9 14 5 4 6 6 3 9 3 6 6 7 4 7 6 4 3 8 8 5 5 4 5 5 4 9 7 8 10 17 15 21 15
30 30 28 29 36 39 38 12 8 9 3 3 13 10 7 12 3 8 5 5 7 4 6 4 4 2 4 4 7 6 4 5 2 4 8 11 18 13 9 14 15 18 18 15
31 28 26 32 40 45 31 24 17 9 10 7 6 5 3 5 10 2 3 3 2 2 1 5 4 2 2 1 4 4 2 3 2 8 3 6 11 8 12 2 0 4 5 5
30 30 28 31 44 40 36 25 19 8 1 2 3 4 8 5 5 6 5 7 4 3 5 3 1 7 12 12 9 9 5 4 2 5 3 8 3 3 4 2 4 2 1 2
28 28 29 32 33 51 47 33 16 11 4 6 7 6 9 14 14 6 8 7 7 7 4 2 3 2 2 2 6 3 4 3 2 3 4 5 3 3 2 3 5 4 3 4
28 26 23 29 52 55 48 25 15 10 12 6 6 4 6 2 3 3 5 7 7 3 2 2 3 3 2 2 3 5 4 4 3 2 3 5 3 2 6 5 4 1 2 3
26 27 27 39 55 42 32 21 13 9 13 12 8 6 3 3 5 3 5 2 1 1 1 3 4 3 1 3 4 2 2 2 4 6 6 6 4 2 5 4 5 3 6 9
24 29 40 38 24 20 17 13 11 12 13 25 20 17 14 6 7 2 3 3 2 1 2 1 1 1 2 3 1 3 4 3 3 2 1 8 6 3 4 3 7 13 13 14
30 25 21 19 17 15 10 21 15 19 22 26 27 27 19 14 7 5 4 4 4 3 2 2 1 2 3 2 2 2 2 3 3 6 5 3 9 12 14 16 18 18 17 20
29 25 22 21 19 15 10 28 25 28 36 29 26 19 23 12 10 4 4 4 4 4 5 2 1 4 1 0 2 2 3 2 1 3 3 6 12 16 16 15 19 21 23 26
33 30 26 22 22 23 27 32 18 20 16 8 11 13 25 19 12 10 10 11 8 7 5 5 2 2 4 1 2 2 3 3 2 6 14 17 14 10 14 21 23 32 36 38
32 28 26 25 23 22 23 23 19 9 4 8 10 16 20 19 16 12 9 7 8 6 4 6 1 2 2 3 2 2 7 6 3 5 15 15 28 32 30 35 39 39 37 37
32 32 32 30 27 25 15 14 28 29 29 12 3 7 16 14 15 17 16 10 8 7 5 4 3 3 2 2 2 5 12 12 17 18 22 31 36 38 38 37 35 36 37 37
23 22 20 17 12 7 13 9 8 11 10 8 7 4 10 11 11 13 12 16 9 6 4 3 2 1 1 2 2 10 10 12 18 24 28 35 35 35 41 41 44 43 41 39
21 18 16 19 29 35 34 23 11 9 14 10 4 3 6 17 9 5 12 7 7 8 4 2 2 2 2 2 16 19 18 20 22 24 26 34 40 43 44 41 40 41 42 41
31 31 30 34 36 24 22 19 28 24 14 8 8 3 2 12 12 9 5 6 3 3 3 2 3 2 3 10 13 14 21 22 30 34 37 40 37 39 40 38 39 37 42 41
23 16 9 9 8 11 8 6 7 13 14 11 7 8 3 9 10 9 6 5 1 2 2 8 1 3 22 21 18 21 26 29 32 37 35 36 37 37 41 42 41 40 42 42
3 7 8 12 11 8 8 8 11 12 7 9 7 9 5 9 3 2 7 1 2 3 3 2 3 3 7 9 17 24 30 32 32 33 37 38 40 42 43 43 42 41 40 40
15 15 14 9 10 10 10 4 6 8 1 8 7 8 7 5 4 3 5 1 3 2 6 3 3 4 10 15 29 35 34 34 35 35 36 37 39 39 40 41 41 40 40 39
9 7 7 10 11 15 8 7 4 4 8 8 14 7 7 5 4 2 3 4 3 6 3 3 5 12 24 30 35 39 40 38 37 38 39 39 39 38 38 38 38 38 38 36
10 9 9 5 6 4 1 2 2 3 8 13 13 5 3 4 4 2 3 2 2 4 3 5 4 27 36 42 41 38 40 40 41 42 41 41 40 40 39 36 35 35 36 34
10 10 6 4 5 6 5 5 5 6 11 9 4 4 3 3 3 2 2 5 4 4 4 4 27 41 44 43 44 43 43 43 43 42 43 43 43 42 40 37 34 33 32 30
10 12 6 3 1 7 5 6 8 8 6 4 3 2 4 3 0 4 1 1 4 4 10 38 43 45 46 46 46 46 46 45 45 44 44 42 40 39 38 35 33 32 31 31
8 8 10 6 4 5 7 9 12 8 5 4 3 5 3 5 3 3 3 3 5 32 40 43 44 45 48 50 48 47 46 45 45 42 40 39 38 35 36 38 37 34 31 31
Wind_Direction
258 252 255 261 251 266 270 255 187 199 178 149 240 226 206 186 187 210 228 235 190 209 182 204 224 219 190 159 147 162 232 148 194 215 268 215 131 191 145 158 239 235 148 257
257 259 247 246 252 255 253 199 199 181 177 172 211 226 235 216 159 196 192 217 200 117 194 227 206 114 125 156 151 162 195 217 357 298 358 7 157 234 157 123 83 228 192 256
254 252 248 250 253 254 256 195 167 128 200 224 240 194 231 215 194 201 185 166 140 160 184 205 214 134 197 189 182 181 168 185 197 243 160 139 191 213 203 184 236 247 237 268
252 249 247 243 249 259 251 212 215 188 185 231 215 177 196 197 198 221 190 201 214 158 212 200 237 181 136 199 215 179 159 232 225 251 260 233 264 218 214 215 239 239 266 252
257 248 246 242 247 243 227 204 170 188 229 160 195 192 209 193 170 163 228 218 193 161 169 193 147 182 148 181 214 163 182 238 179 256 249 257 264 256 233 234 251 256 263 274
254 252 253 245 239 235 214 221 216 204 173 163 153 198 189 184 125 133 68 126 88 167 146 107 157 63 349 152 143 199 183 117 75 265 225 340 285 233 235 239 199 155 258 272
257 255 249 245 246 248 238 221 205 172 117 145 197 159 172 154 159 132 101 94 97 111 133 87 305 247 249 253 231 198 159 141 201 281 71 263 283 314 80 165 240 233 325 265
256 254 253 246 248 219 225 221 194 151 97 333 43 37 109 97 90 80 79 60 104 122 82 70 342 286 315 27 37 60 166 156 252 249 211 307 330 310 89 117 271 209 189 284
253 250 251 225 201 211 212 196 162 109 113 14 318 350 67 100 89 89 79 84 105 89 153 137 182 231 181 260 337 15 54 74 164 96 228 257 208 250 148 149 278 70 119 289
249 235 231 210 201 192 192 161 154 132 97 27 31 48 11 30 68 82 90 82 80 115 139 174 209 238 220 209 178 220 70 18 188 231 256 283 185 160 148 83 279 303 304 305
173 177 173 168 165 171 174 139 150 165 102 58 71 71 52 53 52 92 139 128 27 65 91 156 333 93 267 68 245 169 164 160 227 94 34 282 158 135 177 209 279 292 280 281
113 106 110 117 127 144 164 121 127 137 92 101 77 67 59 64 64 104 54 94 76 64 82 39 42 45 30 170 269 306 273 189 203 191 227 180 203 247 271 284 286 287 274 280
104 106 107 108 107 106 129 119 122 120 102 81 62 37 50 70 62 76 111 76 98 87 78 116 167 90 164 325 266 344 313 186 206 20 290 245 268 282 273 269 277 275 278 285
93 93 92 95 104 117 124 120 116 123 112 93 60 69 53 45 55 69 85 113 111 114 84 69 72 96 21 214 194 178 192 137 200 265 279 291 279 294 298 289 281 290 291 292
99 97 96 99 103 112 112 104 104 91 94 121 137 57 50 45 52 68 82 94 110 88 67 50 93 82 61 21 63 277 191 193 154 248 291 270 283 298 298 294 297 299 299 297
99 103 110 118 120 119 99 71 75 87 97 102 85 78 46 47 40 57 57 69 81 84 81 84 79 65 80 94 228 245 225 252 270 267 291 288 291 293 295 297 300 300 298 295
103 109 116 124 127 132 72 78 89 84 83 89 112 82 27 37 39 39 39 44 55 67 84 68 79 128 50 100 221 231 246 286 302 297 294 289 296 292 306 300 302 302 297 293
103 105 104 103 103 102 84 69 82 95 79 80 79 71 40 18 8 23 21 24 30 44 69 78 38 280 202 265 250 254 265 282 292 306 301 293 299 300 300 303 303 301 301 303
103 102 101 99 81 70 72 73 61 66 72 90 63 38 332 358 17 8 22 18 43 31 46 49 333 267 238 230 261 298 303 283 297 308 304 304 302 305 308 308 305 295 299 303
111 104 72 55 45 66 59 48 39 35 41 55 61 7 352 356 1 14 12 18 49 34 283 321 125 260 266 268 279 301 310 308 303 299 298 301 297 296 299 301 303 298 297 298
35 58 70 77 54 43 47 50 40 12 44 28 24 18 342 3 35 313 19 250 336 40 294 81 301 279 252 283 293 308 314 313 309 303 301 303 302 300 299 298 298 296 293 290
95 100 86 45 34 45 67 23 26 41 72 5 358 338 349 335 349 345 5 96 25 263 336 59 281 252 294 300 314 320 317 314 310 307 300 301 300 300 295 294 295 297 299 300
69 57 61 16 9 41 51 359 350 20 359 4 343 325 346 341 350 330 23 49 248 312 43 242 235 273 312 317 317 316 317 316 312 310 313 310 308 309 305 303 308 309 307 309
53 44 32 58 12 41 110 185 248 309 314 323 326 311 326 339 345 352 52 250 31 9 351 242 262 318 316 316 315 314 314 315 315 315 314 313 313 313 316 315 317 314 312 315
63 45 52 53 69 59 43 16 334 324 315 325 332 300 316 338 17 24 310 1 323 217 250 271 307 311 311 313 316 317 317 316 314 315 314 315 317 315 314 319 319 317 317 316
60 51 67 112 74 23 21 13 353 352 356 346 331 319 33 348 101 16 236 116 250 267 289 305 308 308 311 314 317 316 316 316 316 316 316 315 315 315 318 322 324 325 322 318
59 52 61 86 58 23 16 16 6 1 1 19 357 47 258 287 339 314 205 234 271 299 302 305 305 306 309 314 316 318 319 319 323 322 320 319 322 328 328 320 327 326 324 319